星链-32018 (STARLINK-32018 )

导读 | 星芒AI

STARLINK-32018 是 SpaceX Starlink 项目中的一颗低轨通信卫星,属于第三代星链卫星群。该卫星于2023年发射,旨在为全球用户提供高速、低延迟的互联网服务。它运行在约550公里高的近地轨道,采用先进推进系统和激光通信技术,以提升网络效率和稳定性。作为星链计划的重要组成部分,STARLINK-32018 有助于扩大卫星互联网覆盖范围,特别是在偏远和网络基础设施薄弱的地区。

基本信息
目录编号:
60105
目录名称:
STARLINK-32018
国际标识:
2024-117Q
轨道中心:
EARTH
卫星名称:
星链-32018
卫星全名:
星链-32018 (STARLINK-32018 )
卫星状态:
在轨 (已飞行545 天)
发射日期:
2024-06-23 UTC
国别 :
美国 (US)
星等 :
--
轨道信息
数据来源 国际轨道数据
星历时间: 2025-12-19T22:24:42+0800
13小时前
查看轨道信息
半长轴: 6853.397km
偏心率: 0.0000966
轨道倾角: 53.160°
近地点辐角 97.596°
升交点赤经 49.186°
平近点角 262.515°
近地点: 474.597km
远地点: 475.923km
周期: 94.106分钟
每日圈数: 15.30185
详细信息
固有亮度:
5
最大亮度:
1.5
卫星平台:
Starlink v2.0 mini
覆盖范围:
全球
运营商:
太空探索技术公司
运营商所在国:
美国
制造商(研发单位):
太空探索技术公司
制造商所在国:
美国
使用方式:
暂无
卫星简介
星链(Starlink)计划是由太空探索技术公司(SpaceX)提出的一个巨型低轨卫星互联网星座项目,计划在2019年至2024年间在太空搭建由约1.2万颗卫星组成的“星链”网络,其中1584颗将部署在地球上空550千米处的近地轨道,并从2020年开始工作。该卫星仍在工作。
2D轨道图
3D轨道图
轨道高度分析图
轨道倾角分析图
轨道综合分析图
查看轨道综合分析图